Simultaneous Nadir Overpasses (SNOs) Predictions

Prediction of SNOs between METOP-A and NOAA-19 Satellite Orbit:

Table of predicted SNOs for the next 14.0 days since TLE Epoch: 9/24/2013
Index Date (METOP-A) Time (METOP-A) Lat,Lon (METOP-A) SZA (METOP-A ) Date (NOAA-19) Time (NOAA-19) Lat,Lon (NOAA-19) SZA (NOAA-19 ) Distance(km) Time Diff (sec)
1 09/27/2013 05:51:05 73.63, 85.83 75.29 09/27/2013 05:49:55 73.64, 85.79 75.30 1.54 70
2 09/27/2013 06:41:47 -73.60,-106.92 104.73 09/27/2013 06:40:51 -73.63,-106.93 104.70 3.28 56
3 09/27/2013 07:32:28 73.56, 60.33 75.25 09/27/2013 07:31:58 73.57, 60.43 75.26 3.46 30
4 09/27/2013 08:23:09 -73.58,-132.30 104.72 09/27/2013 08:22:54 -73.56,-132.29 104.74 2.04 15
5 09/27/2013 09:13:50 73.54, 34.94 75.26 09/27/2013 09:14:02 73.55, 34.95 75.27 1.54 12
6 09/27/2013 10:04:31 -73.56,-157.68 104.71 09/27/2013 10:04:58 -73.54,-157.76 104.73 3.08 27
7 09/27/2013 10:55:12 73.52, 9.56 75.27 09/27/2013 10:56:06 73.54, 9.47 75.28 3.13 54
8 09/27/2013 11:45:54 -73.49, 176.82 104.75 09/27/2013 11:47:01 -73.48, 176.88 104.77 2.42 67
9 10/07/2013 07:25:24 73.93, 62.94 79.45 10/07/2013 07:24:13 73.95, 61.53 79.51 43.33 71
10 10/07/2013 08:16:12 -73.62,-130.47 100.84 10/07/2013 08:15:04 -73.61,-130.36 100.85 3.65 68
11 10/07/2013 09:06:52 73.61, 36.84 79.17 10/07/2013 09:06:10 73.59, 36.89 79.16 2.52 42
12 10/07/2013 09:57:34 -73.60,-155.86 100.83 10/07/2013 09:57:08 -73.59,-155.84 100.84 1.13 26
13 10/07/2013 10:48:14 73.59, 11.46 79.18 10/07/2013 10:48:14 73.58, 11.42 79.17 2.03 0
14 10/07/2013 11:38:56 -73.58, 178.76 100.82 10/07/2013 11:39:12 -73.57, 178.68 100.83 2.42 16
15 10/07/2013 12:29:37 73.52, -14.04 79.14 10/07/2013 12:30:17 73.51, -13.95 79.13 3.29 40
16 10/07/2013 13:20:19 -73.51, 153.26 100.86 10/07/2013 13:21:15 -73.51, 153.32 100.87 2.07 56
17 10/07/2013 14:11:05 73.20, -40.10 78.86 10/07/2013 14:12:16 73.25, -38.85 78.88 40.55 71




NCC Satellite Simultaneous Nadir Overpasses (SNOs) Prediction Service
